767  
ASUS43 KGRB 260111  
RWRGRB  
 
NORTH-CENTRAL AND NORTHEAST WISCONSIN REGIONAL WEATHER ROUNDUP  
NATIONAL WEATHER SERVICE GREEN BAY WI  
800 PM CDT SUN JUN 25 2017  
 
WIZ005-009-010>012-018-019-260200-  
NORTH CENTRAL WISCONSIN  
 
CITY SKY/WX TMP DP RH WIND PRES REMARKS
 
IRONWOOD CLOUDY 51 48 89 W9 30.05F  
MANITOWISH WTR CLOUDY 50 50 100 NW7 30.05S  
ARBOR VITAE HVY RAIN 52 49 91 NW9G23 30.05R  
EAGLE RIVER CLOUDY 51 50 97 NW9 30.03S  
LAND O LAKES CLOUDY 51 50 95 NW6 30.04F  
RHINELANDER MOCLDY 53 49 86 NW9 30.05S  
PHILLIPS MOCLDY 55 47 75 NW6 30.06S  
ANTIGO PTCLDY 53 48 81 NW13 30.05S  
TOMAHAWK NOT AVBL  
MERRILL PTCLDY 56 49 75 NW9 30.07R  

 
 
WIZ013-073-260200-  
NORTHEAST WISCONSIN  
 
CITY SKY/WX TMP DP RH WIND PRES REMARKS
 
IRON MOUNTAIN LGT RAIN 54 50 86 N5 30.00S  
MARINETTE PTCLDY 59 55 87 MISG 30.00S  
OCONTO CLOUDY 58 53 82 W10G17 30.01R  

 
 
WIZ017-030-035>037-045-260200-  
CENTRAL WISCONSIN  
 
CITY SKY/WX TMP DP RH WIND PRES REMARKS
 
MEDFORD MOCLDY 55 46 72 NW6 30.07S  
WAUSAU PTCLDY 57 47 69 NW10G23 30.05R  
MOSINEE MOCLDY 55 52 88 W6 30.07S  
MARSHFIELD MOCLDY 57 50 77 NW12G21 30.08R  
WISC RAPIDS CLEAR 59 51 75 NW8 30.09R  
STEVENS POINT PTCLDY 55 52 89 W6 30.07S  
WAUPACA MOCLDY 59 55 87 W7 30.06S  
SHAWANO CLOUDY 60 55 83 W5 30.04R  
CLINTONVILLE CLOUDY 59 50 72 W7 30.04R  
WAUTOMA MOCLDY 58 55 90 W7 30.08S  

 
 
WIZ038-039-048-051-260200-  
FOX VALLEY  
 
CITY SKY/WX TMP DP RH WIND PRES REMARKS
 
NWS GREEN BAY CLOUDY 59 55 87 NW12 30.03S  
APPLETON MOCLDY 57 52 82 W10 30.04R  
OSHKOSH CLOUDY 58 52 80 VRB5 30.05S  
FOND DU LAC CLOUDY 59 51 75 W14 30.06S  

 
 
WIZ022-050-052-260200-  
EAST CENTRAL WISCONSIN  
 
CITY SKY/WX TMP DP RH WIND PRES REMARKS
 
EPHRAIM CLOUDY 57 55 93 CALM 29.98F  
WASHINGTON ISL LGT RAIN 56 53 90 CALM 29.98F  
STURGEON BAY N/A 59 55 87 SW6 N/A  
MANITOWOC RAIN 58 51 78 W10 30.03R  
SHEBOYGAN LGT RAIN 56 54 93 NW8 30.04R  

 
 
LMZ563-521-522-541>543-260200-  
LAKESHORE  
 
STATION/POSITION TIME TEMP WIND PRES VSBY WAVE
 
AIR SEA DIR/SP/G HT/PER  
(UTC) (F) (DEG/KT/KT) (MB) (MI) (FT/S)  
SHEBOYGAN LKSHOR 0100 58 300/ 10/ 13 1017.2R  
KEWAUNEE LKSHORE 0042 59 270/ 6/ 9 1015.8S  
NORTHPORT PIER 0040 57 290/ 5/ 6 1015.2F  
N MID LAKE BUOY 0050 59 57 240/ 10/ 12 1015.9F 2/ 5  
S GREEN BAY BUOY 0030 60 280/ 12/ 14 1015.7R  
CHAMBERS ISLAND 0040 58 CALM 1014.9F  
MENOMINEE LKSHOR 0042 10/ 3/ 5 1014.7F  

 
 
 
CLICK HERE TO GO TO PREVIOUS BULLETINS.

The Nexlab WI Page Main Text Page